User: anonymous   Login
Location: Unspecified
(0.0000°N, 0.0000°E)
Time: 10:02:46
(UTC+00:00)
Language:

TBA - TO BE ASSIGNED - Orbit

View from above orbital plane
View from above orbital plane
View from above satellite
View from above satellite

Ground track
Ground track

The orbit is defined by the following mean orbital elements,

1 68839U          26145.58335647 +.00000000 +00000-0 +31398-3 0 00003
2 68839  97.2857 160.2006 0001670  95.5431 300.7477 15.49177108    01
Epoch (UTC): 25 May 2026 14:00:01
Eccentricity: 0.0001670
inclination: 97.2857°
perigee height: 418 km
apogee height: 420 km
right ascension of ascending node: 160.2006°
argument of perigee: 95.5431°
revolutions per day: 15.49177108
mean anomaly at epoch: 300.7477°

The dashed part of the orbit path shows where the satellite is in the earth's shadow,  

DLR